Regional Weather Roundup
Issued by NWS

Home | Current Version | Previous Version | Graphics & Text | Print | Product List | Glossary On
Versions: 1 2 3 4 5 6 7 8 9 10 11 12 13 14 15 16 17 18 19 20 21 22 23 24 25 26 27 28 29 30 31 32 33 34 35 36 37 38 39 40 41 42 43 44 45 46 47 48 49 50
000
ASUS43 KDMX 250706
RWRIA

WEATHER ROUNDUP FOR IOWA
NATIONAL WEATHER SERVICE DES MOINES IA
200 AM CDT FRI MAY 25 2018

NOTE: "FAIR" INDICATES FEW OR NO CLOUDS BELOW 12,000 FEET WITH NO
SIGNIFICANT WEATHER AND/OR OBSTRUCTIONS TO VISIBILITY.

* - THESE STATIONS ARE NOT NWS STATIONS...THUS NOT UNDER NWS
QUALITY CONTROL.  THEY ALSO DO NOT REPORT WEATHER SUCH
AS PRECIPITATION OR FOG.

IAZ001>003-012>014-020>022-031>034-043>046-250800-
   NORTHWEST IOWA

CITY           SKY/WX    TMP DP  RH WIND       PRES   REMARKS
CARROLL *      PTCLDY    72  63  73 S9        29.91F
CHEROKEE *     CLEAR     72  65  79 S8        29.89S
DENISON *      PTCLDY    70  63  78 VRB3      29.92S
LE MARS *      MOCLDY    73  66  78 S10G16    29.85F
ORANGE CITY *  PTCLDY    72  66  83 S7        29.87F
SHELDON *      PTCLDY    70  66  88 S12       29.86F
SIOUX CITY     PTCLDY    74  63  68 S9        29.86F
SPENCER        CLEAR     72  64  76 S12       29.88F
STORM LAKE *   CLEAR     70  63  78 S10       29.90F
$$

IAZ055>058-069>071-079>083-090>094-250800-
   SOUTHWEST IOWA

CITY           SKY/WX    TMP DP  RH WIND       PRES   REMARKS
ATLANTIC *     CLOUDY    70  64  83 S8        29.92F
AUDUBON *      CLOUDY    70  64  83 S6        29.94F
CLARINDA *     CLOUDY    68  63  83 S6        29.96F
COUNCIL BLFS * PTCLDY    68  68 100 S8        29.91F
CRESTON *      PTCLDY    66  64  94 S8        29.96F
HARLAN  *      PTCLDY    70  64  83 S8        29.95F
LAMONI         CLOUDY    69  64  84 SW7       29.96F
RED OAK *      CLOUDY    70  63  78 S8        29.93F
SHENANDOAH *   CLOUDY    70  63  78 S7        29.93F
$$

IAZ047>049-059>061-072>074-084-250800-
   CENTRAL IOWA

CITY           SKY/WX    TMP DP  RH WIND       PRES   REMARKS
AMES           PTCLDY    70  65  84 S7        29.93F
ANKENY *       PTCLDY    73  66  78 S6        29.95F
BOONE *        MOCLDY    73  64  73 S9        29.92F
CHARITON *     CLOUDY    70  66  88 S7        29.96F
DES MOINES     MOCLDY    71  65  81 S5        29.93F
GRINNELL*      CLOUDY    72  64  78 S6        29.97F
KNOXVILLE *    CLOUDY    70  64  83 S6        29.95F
MARSHALLTOWN   PTCLDY    71  66  84 S7        29.93F
NEWTON *       CLEAR     70  64  83 S7        29.95F
PELLA *        CLOUDY    71  64  80 S5        29.96F
PERRY *        FAIR      71  65  82 S9        29.92F
$$

IAZ004>006-015-016-023>025-035-036-250800-
   NORTH CENTRAL IOWA

CITY           SKY/WX    TMP DP  RH WIND       PRES   REMARKS
ALGONA *       CLOUDY    72  64  78 S14       29.90S
CLARION *      CLOUDY    72  64  78 S9        29.92F
ESTHERVILLE    CLOUDY    69  64  84 S12       29.87F
FORT DODGE *   MOCLDY    74  64  71 S13       29.91F
MASON CITY     CLOUDY    71  63  75 S8        29.92F
FOREST CITY *  FAIR      68  64  88 S8        29.90F
WEBSTER CITY * CLOUDY    73  64  73 S10       29.90F
IOWA FALLS *   FAIR      71  65  80 S8        29.94F
$$

IAZ007>011-017>019-026>030-037>042-050>054-066-250800-
   NORTHEAST IOWA

CITY           SKY/WX    TMP DP  RH WIND       PRES   REMARKS
CEDAR RAPIDS   FAIR      71  61  70 S5        29.96F
CHARLES CITY * FAIR      70  63  78 S8        29.94F
CLINTON *      FAIR      68  61  78 S5        29.99F
DECORAH *      FAIR      72  64  78 VRB5      29.94F
DUBUQUE        FAIR      66  58  75 S6        29.98F
MONTICELLO *   FAIR      70  61  73 CALM      29.97F
OELWEIN *      FAIR      68  64  88 S8        29.96F
WATERLOO       FAIR      68  64  87 S8        29.93F
$$

IAZ064-065-067-068-078-250800-
   EAST CENTRAL IOWA

CITY           SKY/WX    TMP DP  RH WIND       PRES   REMARKS
DAVENPORT      FAIR      68  58  70 S5        30.00F
IOWA CITY      FAIR      70  61  73 CALM      29.98F
MT. PLEASANT * CLOUDY    70  59  68 S3        29.98S
MUSCATINE *    FAIR      68  61  77 CALM      29.97F
QUAD CITIES    FAIR      66  60  81 CALM      29.97F
$$

IAZ062-063-075>077-085>089-095>099-250800-
   SOUTHEAST IOWA

CITY           SKY/WX    TMP DP  RH WIND       PRES   REMARKS
BURLINGTON     MOCLDY    70  60  70 S6        29.98F
FAIRFIELD *    CLOUDY    73  61  64 S5        29.97S
FORT MADISON * PTCLDY    75  63  64 S10       29.99F
KEOKUK *       PTCLDY    73  63  68 S6        29.97F
OSKALOOSA *    FAIR      71  65  82 S7        29.97F
CENTERVILLE *  FAIR      72  68  88 CALM      29.99S
OTTUMWA        CLOUDY    72  65  78 S6        29.96F
WASHINGTON *   CLOUDY    70  64  83 S7        29.98F
$$

ABBREVIATIONS USED IN REMARKS
   TC - TEMPERATURES IN CELSIUS
  WCI - WIND CHILL INDEX
   HX - HEAT INDEX
  VSB - VISIBILITY
$$




USA.gov is the U.S. government's official web portal to all federal, state and local government web resources and services.